QPF
0.00 0.05 0.08 0.19 0.15 0.10 0.16 0.06 0.09 0.02 0.01 0.00 0.00 0.00 0.00 0.00 0.00 0.00 0.00 0.00 0.00 0.00 0.01 0.00 0.03 0.15 0.08 0.01 0.00 0.00 0.00 0.00 0.00 0.00 0.00 0.01 0.01 0.00 0.00 0.00 0.01 0.00 0.01
0.00 0.07 0.09 0.16 0.13 0.07 0.10 0.07 0.07 0.06 0.00 0.00 0.00 0.00 0.00 0.00 0.00 0.00 0.00 0.05 0.01 0.01 0.01 0.06 0.03 0.01 0.00 0.00 0.00 0.00 0.00 0.00 0.00 0.00 0.00 0.00 0.01 0.00 0.00 0.00 0.01 0.00 0.00
0.00 0.01 0.02 0.16 0.06 0.04 0.02 0.03 0.06 0.05 0.00 0.00 0.00 0.00 0.00 0.00 0.02 0.00 0.01 0.02 0.00 0.00 0.00 0.00 0.00 0.00 0.00 0.00 0.00 0.00 0.00 0.00 0.00 0.00 0.00 0.00 0.00 0.00 0.00 0.00 0.00 0.00 0.00
0.00 0.03 0.01 0.12 0.06 0.05 0.04 0.06 0.02 0.04 0.02 0.00 0.00 0.00 0.01 0.02 0.02 0.00 0.00 0.00 0.00 0.00 0.00 0.00 0.00 0.00 0.00 0.00 0.00 0.00 0.00 0.00 0.00 0.00 0.00 0.00 0.00 0.02 0.01 0.01 0.00 0.00 0.00
0.00 0.01 0.03 0.06 0.05 0.09 0.08 0.06 0.01 0.00 0.00 0.00 0.01 0.01 0.00 0.00 0.00 0.00 0.00 0.00 0.00 0.00 0.00 0.00 0.00 0.00 0.00 0.00 0.00 0.00 0.00 0.00 0.00 0.00 0.00 0.00 0.00 0.00 0.00 0.00 0.00 0.00 0.00
0.01 0.01 0.04 0.05 0.04 0.04 0.07 0.05 0.04 0.01 0.00 0.00 0.03 0.06 0.04 0.06 0.01 0.00 0.00 0.00 0.01 0.01 0.00 0.00 0.00 0.00 0.00 0.00 0.00 0.00 0.00 0.00 0.00 0.00 0.00 0.00 0.00 0.00 0.00 0.00 0.00 0.00 0.00
0.01 0.00 0.02 0.08 0.03 0.04 0.05 0.07 0.14 0.07 0.01 0.00 0.01 0.05 0.02 0.00 0.00 0.00 0.00 0.00 0.00 0.00 0.00 0.00 0.00 0.00 0.00 0.00 0.00 0.00 0.00 0.00 0.00 0.00 0.00 0.00 0.00 0.00 0.00 0.00 0.00 0.00 0.00
0.00 0.00 0.01 0.10 0.10 0.04 0.02 0.06 0.14 0.09 0.00 0.00 0.00 0.01 0.01 0.00 0.00 0.00 0.00 0.00 0.00 0.00 0.00 0.00 0.00 0.00 0.00 0.00 0.00 0.00 0.00 0.00 0.00 0.00 0.00 0.00 0.00 0.00 0.00 0.00 0.00 0.00 0.00
0.01 0.05 0.02 0.01 0.05 0.12 0.07 0.05 0.03 0.01 0.00 0.00 0.00 0.00 0.01 0.00 0.00 0.00 0.00 0.00 0.00 0.00 0.00 0.00 0.00 0.00 0.00 0.00 0.00 0.00 0.01 0.01 0.00 0.00 0.00 0.00 0.00 0.00 0.00 0.00 0.00 0.00 0.01
0.02 0.09 0.07 0.03 0.05 0.08 0.10 0.06 0.03 0.03 0.00 0.00 0.00 0.00 0.00 0.00 0.00 0.00 0.05 0.03 0.00 0.00 0.00 0.00 0.00 0.00 0.00 0.00 0.00 0.00 0.01 0.01 0.00 0.00 0.00 0.00 0.00 0.00 0.00 0.00 0.00 0.00 0.00
0.00 0.03 0.02 0.02 0.04 0.06 0.07 0.01 0.02 0.00 0.00 0.00 0.00 0.00 0.00 0.00 0.00 0.00 0.07 0.07 0.04 0.01 0.00 0.00 0.00 0.00 0.00 0.01 0.00 0.00 0.00 0.00 0.00 0.00 0.00 0.00 0.00 0.00 0.00 0.00 0.00 0.00 0.00
0.00 0.00 0.00 0.00 0.01 0.01 0.00 0.00 0.00 0.00 0.00 0.00 0.00 0.00 0.00 0.00 0.00 0.00 0.01 0.02 0.06 0.05 0.00 0.00 0.00 0.00 0.00 0.00 0.00 0.00 0.00 0.00 0.00 0.00 0.00 0.00 0.00 0.00 0.00 0.00 0.00 0.00 0.00
0.00 0.00 0.00 0.00 0.00 0.00 0.00 0.00 0.00 0.00 0.00 0.00 0.00 0.00 0.00 0.00 0.00 0.00 0.00 0.00 0.02 0.03 0.01 0.01 0.01 0.00 0.00 0.00 0.00 0.00 0.00 0.00 0.00 0.00 0.00 0.00 0.00 0.00 0.00 0.00 0.00 0.00 0.00
0.00 0.00 0.00 0.00 0.00 0.00 0.00 0.00 0.00 0.00 0.00 0.00 0.00 0.00 0.00 0.00 0.00 0.00 0.00 0.00 0.00 0.00 0.00 0.00 0.00 0.00 0.00 0.00 0.00 0.00 0.00 0.00 0.00 0.00 0.00 0.00 0.00 0.00 0.00 0.00 0.00 0.00 0.00
0.00 0.00 0.00 0.00 0.00 0.00 0.00 0.00 0.00 0.00 0.00 0.00 0.00 0.00 0.00 0.00 0.00 0.00 0.00 0.00 0.00 0.00 0.00 0.01 0.00 0.00 0.01 0.00 0.00 0.00 0.00 0.00 0.00 0.00 0.00 0.00 0.00 0.00 0.00 0.00 0.00 0.00 0.00
0.00 0.00 0.00 0.00 0.00 0.00 0.00 0.00 0.00 0.00 0.00 0.00 0.00 0.00 0.00 0.00 0.00 0.00 0.00 0.00 0.00 0.00 0.05 0.08 0.03 0.00 0.00 0.00 0.00 0.00 0.00 0.00 0.00 0.00 0.00 0.00 0.00 0.00 0.00 0.00 0.00 0.00 0.00
0.00 0.00 0.00 0.00 0.00 0.00 0.00 0.00 0.00 0.00 0.00 0.00 0.00 0.00 0.00 0.00 0.00 0.00 0.00 0.00 0.00 0.00 0.03 0.07 0.04 0.01 0.00 0.00 0.00 0.00 0.00 0.00 0.00 0.00 0.00 0.00 0.00 0.00 0.00 0.00 0.00 0.00 0.00
0.00 0.00 0.00 0.00 0.00 0.00 0.00 0.00 0.00 0.00 0.00 0.00 0.00 0.00 0.00 0.00 0.00 0.00 0.00 0.00 0.00 0.00 0.01 0.03 0.01 0.01 0.00 0.00 0.00 0.00 0.00 0.00 0.00 0.00 0.00 0.00 0.00 0.00 0.00 0.00 0.00 0.00 0.00
0.00 0.00 0.00 0.00 0.00 0.00 0.00 0.00 0.00 0.00 0.00 0.00 0.00 0.00 0.00 0.00 0.00 0.00 0.00 0.00 0.00 0.00 0.00 0.00 0.00 0.03 0.03 0.00 0.00 0.00 0.00 0.00 0.00 0.00 0.00 0.00 0.00 0.00 0.00 0.00 0.00 0.00 0.00
0.00 0.00 0.00 0.00 0.00 0.00 0.00 0.00 0.00 0.00 0.00 0.00 0.00 0.00 0.00 0.00 0.00 0.00 0.00 0.00 0.00 0.00 0.00 0.00 0.01 0.01 0.06 0.03 0.00 0.00 0.00 0.00 0.00 0.00 0.00 0.00 0.00 0.00 0.00 0.00 0.00 0.00 0.00
0.00 0.00 0.00 0.00 0.00 0.00 0.00 0.00 0.00 0.00 0.00 0.00 0.00 0.00 0.00 0.00 0.00 0.00 0.00 0.01 0.04 0.03 0.02 0.01 0.01 0.01 0.01 0.02 0.06 0.00 0.00 0.00 0.00 0.00 0.00 0.00 0.00 0.00 0.00 0.00 0.00 0.00 0.00
0.00 0.00 0.00 0.00 0.00 0.00 0.00 0.00 0.00 0.00 0.00 0.00 0.00 0.00 0.00 0.00 0.00 0.07 0.03 0.07 0.16 0.13 0.09 0.08 0.05 0.07 0.08 0.03 0.06 0.05 0.00 0.00 0.00 0.00 0.00 0.00 0.00 0.00 0.00 0.00 0.00 0.00 0.00
0.00 0.00 0.00 0.00 0.00 0.00 0.00 0.00 0.00 0.00 0.00 0.00 0.00 0.01 0.02 0.05 0.03 0.09 0.22 0.30 0.23 0.20 0.12 0.07 0.13 0.14 0.05 0.04 0.13 0.07 0.01 0.00 0.00 0.00 0.00 0.00 0.00 0.00 0.00 0.00 0.00 0.00 0.00
0.00 0.00 0.00 0.00 0.00 0.00 0.00 0.00 0.00 0.00 0.00 0.00 0.00 0.00 0.00 0.00 0.02 0.07 0.13 0.23 0.15 0.10 0.14 0.19 0.15 0.12 0.11 0.04 0.06 0.02 0.00 0.01 0.00 0.00 0.00 0.00 0.00 0.00 0.00 0.00 0.00 0.00 0.00
0.00 0.00 0.00 0.00 0.00 0.00 0.00 0.00 0.00 0.00 0.00 0.00 0.00 0.00 0.00 0.01 0.01 0.03 0.07 0.05 0.11 0.08 0.10 0.12 0.17 0.14 0.13 0.05 0.04 0.05 0.04 0.04 0.04 0.01 0.00 0.00 0.00 0.00 0.00 0.00 0.00 0.00 0.00
0.00 0.00 0.00 0.00 0.00 0.00 0.00 0.00 0.00 0.00 0.00 0.00 0.00 0.00 0.01 0.01 0.01 0.01 0.01 0.03 0.03 0.05 0.04 0.04 0.09 0.18 0.16 0.13 0.11 0.10 0.06 0.06 0.03 0.01 0.00 0.00 0.00 0.00 0.00 0.00 0.00 0.00 0.00
MSLP
1016.05 1016.03 1016.00 1016.14 1016.18 1016.30 1016.34 1016.50 1016.63 1016.79 1016.97 1017.10 1017.31 1017.37 1017.55 1017.83 1017.98 1018.12 1018.19 1018.36 1018.39 1018.40 1018.51 1018.71 1018.81 1018.99 1018.70 1018.83 1018.93 1019.13 1019.27 1019.24 1019.23 1019.25 1019.34 1019.45 1019.69 1019.88 1019.86 1019.75 1019.46 1019.45 1020.17
1015.98 1016.17 1016.51 1016.34 1016.29 1016.61 1016.72 1016.89 1017.04 1017.18 1017.39 1017.60 1017.76 1017.85 1017.91 1018.20 1018.35 1018.42 1018.48 1018.63 1018.63 1018.62 1018.80 1018.94 1018.98 1019.13 1019.31 1019.29 1019.42 1019.55 1019.61 1019.59 1019.50 1019.49 1019.50 1019.60 1019.94 1020.12 1020.14 1019.95 1019.67 1020.16 1020.37
1016.10 1015.70 1016.25 1016.48 1016.48 1016.71 1016.94 1017.17 1017.46 1017.58 1017.71 1018.02 1018.14 1018.23 1018.35 1018.57 1018.69 1018.74 1018.84 1018.83 1018.95 1019.08 1019.15 1019.28 1019.44 1019.48 1019.73 1019.71 1019.89 1019.91 1019.98 1019.96 1019.94 1019.72 1019.29 1018.56 1019.60 1020.31 1020.39 1020.48 1020.56 1020.62 1020.68
1015.65 1015.44 1015.64 1016.59 1016.65 1017.01 1017.29 1017.49 1017.77 1017.85 1018.15 1018.33 1018.47 1018.61 1018.73 1018.83 1018.83 1019.02 1019.11 1019.21 1019.30 1019.42 1019.51 1019.59 1019.74 1019.80 1019.97 1019.99 1020.17 1020.17 1020.21 1020.22 1020.19 1019.83 1018.66 1018.57 1019.26 1020.55 1020.57 1020.79 1020.89 1020.97 1021.00
1015.29 1015.22 1016.09 1016.72 1016.99 1017.26 1017.60 1017.76 1017.89 1018.19 1018.43 1018.58 1018.73 1018.85 1019.00 1019.11 1019.23 1019.27 1019.40 1019.52 1019.64 1019.76 1019.86 1019.98 1020.04 1020.10 1020.21 1020.33 1020.42 1020.43 1020.55 1020.47 1020.25 1019.60 1019.09 1019.10 1019.14 1020.62 1020.87 1020.99 1021.13 1021.16 1021.08
1014.36 1015.05 1016.66 1016.99 1017.19 1017.60 1017.82 1018.09 1018.10 1018.50 1018.72 1018.89 1019.11 1019.13 1019.20 1019.40 1019.45 1019.52 1019.62 1019.77 1019.74 1019.95 1020.13 1020.26 1020.36 1020.43 1020.50 1020.56 1020.67 1020.72 1020.78 1020.69 1020.31 1019.56 1019.71 1019.92 1019.40 1020.78 1020.97 1021.05 1021.17 1021.36 1021.49
1014.71 1015.42 1016.51 1017.22 1017.47 1017.82 1018.08 1018.37 1018.67 1018.86 1019.10 1019.19 1019.37 1019.51 1019.64 1019.74 1019.85 1019.88 1019.97 1020.03 1020.09 1020.13 1020.28 1020.42 1020.58 1020.70 1020.78 1020.85 1020.85 1020.94 1021.01 1020.81 1019.79 1019.56 1019.95 1019.59 1020.32 1021.02 1021.02 1021.11 1021.32 1021.54 1021.68
1014.90 1015.72 1016.75 1017.66 1017.88 1018.11 1018.32 1018.68 1018.92 1019.16 1019.27 1019.45 1019.60 1019.80 1019.90 1020.05 1020.16 1020.23 1020.35 1020.39 1020.38 1020.47 1020.52 1020.59 1020.77 1020.91 1021.02 1021.11 1021.11 1021.12 1021.12 1020.84 1019.99 1019.83 1020.05 1019.91 1021.11 1021.28 1021.24 1021.24 1021.39 1021.53 1021.72
1015.68 1015.80 1016.72 1017.24 1017.95 1018.45 1018.55 1018.93 1019.11 1019.33 1019.45 1019.62 1019.78 1019.99 1020.15 1020.24 1020.36 1020.41 1020.51 1020.54 1020.59 1020.69 1020.76 1020.85 1020.96 1021.05 1021.09 1021.21 1021.27 1021.20 1021.14 1020.95 1019.71 1019.55 1019.77 1019.64 1021.16 1021.38 1021.38 1021.41 1021.50 1021.60 1021.71
1016.07 1016.76 1016.77 1017.15 1017.48 1018.10 1018.72 1019.00 1019.30 1019.56 1019.71 1019.78 1020.01 1020.20 1020.30 1020.34 1020.44 1020.46 1020.58 1020.70 1020.83 1020.84 1020.91 1020.97 1021.09 1021.18 1021.19 1021.21 1021.21 1021.22 1021.08 1020.75 1019.14 1019.50 1019.73 1020.00 1021.07 1021.32 1021.35 1021.52 1021.58 1021.70 1021.78
1015.97 1016.65 1016.71 1017.13 1017.86 1018.27 1018.47 1019.03 1019.49 1019.71 1019.87 1020.03 1020.19 1020.33 1020.34 1019.28 1019.56 1019.82 1020.53 1020.81 1020.93 1020.94 1021.01 1021.04 1021.13 1021.18 1021.25 1021.12 1021.11 1021.14 1020.92 1019.18 1019.13 1019.40 1019.16 1020.51 1021.04 1021.26 1021.36 1021.50 1021.62 1021.62 1021.71
1015.72 1016.28 1016.70 1016.93 1017.38 1017.81 1017.78 1018.73 1018.83 1019.17 1019.27 1019.41 1019.59 1019.89 1019.65 1019.66 1019.78 1019.93 1020.40 1020.85 1020.83 1020.85 1020.85 1020.91 1021.12 1021.12 1021.08 1020.11 1019.94 1020.80 1019.99 1019.41 1019.45 1019.39 1019.32 1020.45 1020.95 1021.14 1021.22 1021.39 1021.54 1021.57 1021.59
1015.71 1016.02 1016.80 1016.99 1017.57 1017.59 1017.73 1018.19 1018.28 1018.53 1018.82 1019.25 1019.64 1019.89 1019.65 1019.77 1019.93 1019.83 1019.57 1019.72 1019.74 1020.50 1019.59 1020.06 1020.46 1020.38 1019.88 1020.01 1020.01 1019.99 1019.37 1019.65 1019.04 1019.17 1019.44 1020.22 1020.66 1020.93 1021.02 1021.20 1021.36 1021.45 1021.50
1015.75 1016.16 1016.64 1016.96 1017.56 1017.62 1017.93 1018.10 1018.20 1018.21 1018.51 1018.80 1019.10 1019.72 1019.79 1019.79 1019.83 1020.07 1019.53 1019.48 1019.87 1019.54 1019.60 1020.06 1019.80 1020.42 1020.45 1020.10 1020.12 1019.89 1019.70 1019.45 1019.08 1019.55 1019.19 1019.75 1020.24 1020.60 1020.75 1020.91 1021.07 1021.22 1021.29
1015.84 1016.23 1016.73 1017.19 1017.68 1017.90 1018.34 1018.12 1018.27 1018.40 1018.56 1018.56 1018.99 1019.34 1019.51 1019.29 1019.45 1019.62 1019.62 1019.55 1019.35 1020.02 1019.86 1019.77 1019.88 1020.08 1020.43 1019.92 1019.92 1019.83 1019.65 1019.34 1019.32 1019.76 1019.30 1019.40 1019.89 1020.24 1020.40 1020.55 1020.73 1020.88 1021.00
1015.87 1016.31 1016.82 1017.33 1017.73 1018.11 1018.42 1018.53 1018.61 1018.57 1018.40 1018.71 1018.54 1018.73 1019.41 1019.26 1019.19 1019.11 1019.29 1019.42 1019.45 1019.12 1019.27 1019.85 1019.75 1019.70 1019.84 1019.76 1019.32 1019.50 1019.42 1019.32 1019.20 1019.22 1019.14 1018.54 1019.45 1019.90 1020.04 1020.14 1020.33 1020.46 1020.61
1015.76 1016.29 1016.76 1017.34 1017.62 1018.11 1018.43 1018.66 1018.69 1018.31 1018.69 1018.34 1018.35 1018.72 1018.99 1019.23 1019.18 1019.33 1018.92 1018.94 1019.22 1018.97 1019.20 1019.79 1019.38 1019.72 1019.68 1019.46 1019.22 1019.17 1019.01 1019.01 1018.91 1018.80 1018.88 1018.47 1018.30 1019.25 1019.56 1019.71 1019.89 1019.99 1020.06
1015.44 1016.20 1016.80 1017.22 1017.56 1017.94 1018.27 1018.36 1018.34 1018.16 1018.26 1018.12 1018.15 1018.24 1018.67 1018.96 1019.08 1019.03 1018.61 1018.34 1018.30 1019.09 1018.83 1019.13 1019.22 1018.66 1018.71 1019.05 1018.98 1018.75 1018.33 1018.39 1018.33 1018.38 1018.47 1018.41 1017.86 1017.66 1018.60 1018.95 1019.32 1019.41 1019.50
1015.45 1016.14 1016.73 1017.31 1017.42 1017.67 1017.90 1018.04 1018.13 1018.13 1018.22 1017.88 1017.73 1017.76 1017.99 1018.39 1018.52 1018.68 1018.33 1018.03 1018.38 1018.27 1018.24 1018.05 1018.21 1018.24 1018.63 1018.32 1018.57 1018.82 1018.33 1018.05 1017.91 1017.62 1017.55 1017.74 1017.82 1017.74 1017.46 1017.74 1018.30 1018.73 1018.87
1015.29 1015.92 1016.37 1016.72 1017.07 1017.48 1017.51 1017.91 1017.68 1017.56 1017.66 1017.64 1017.54 1017.49 1017.66 1017.88 1018.14 1018.11 1017.86 1017.87 1018.04 1017.84 1017.56 1017.55 1018.19 1018.10 1018.05 1018.35 1017.78 1017.78 1017.61 1017.36 1017.11 1017.14 1017.01 1017.11 1017.00 1017.04 1017.07 1017.12 1017.27 1017.58 1018.04
1014.75 1015.32 1015.90 1016.37 1016.82 1017.26 1017.37 1017.33 1017.26 1017.10 1017.08 1017.14 1017.13 1017.31 1017.54 1017.63 1017.70 1017.70 1017.30 1017.08 1017.36 1017.26 1017.32 1017.33 1017.59 1017.88 1017.47 1017.09 1017.66 1017.29 1016.98 1016.71 1016.64 1016.54 1016.29 1016.14 1016.07 1016.12 1016.33 1016.47 1016.61 1016.38 1016.35
1014.21 1014.80 1015.40 1015.96 1016.44 1016.86 1016.86 1016.97 1016.87 1016.79 1016.48 1016.39 1016.46 1016.69 1016.99 1017.20 1017.27 1016.98 1016.74 1016.50 1016.46 1016.85 1017.02 1017.06 1017.10 1016.98 1017.07 1016.32 1016.81 1016.82 1015.91 1015.24 1014.97 1015.06 1015.34 1015.40 1015.33 1015.30 1015.31 1015.60 1015.84 1015.95 1016.05
1013.55 1014.13 1014.75 1015.43 1015.95 1016.37 1016.65 1016.67 1016.88 1016.96 1016.66 1016.43 1016.16 1016.16 1016.35 1016.41 1016.46 1016.46 1016.51 1016.49 1016.45 1016.35 1016.40 1016.32 1016.34 1016.30 1015.98 1015.63 1016.20 1016.27 1015.42 1014.32 1014.10 1014.07 1014.47 1014.81 1014.65 1014.64 1014.55 1014.58 1014.86 1015.13 1015.45
1012.84 1013.41 1014.18 1014.87 1015.43 1015.87 1016.21 1016.30 1016.28 1016.12 1015.78 1015.55 1015.77 1015.60 1015.69 1015.79 1015.76 1015.70 1015.57 1015.73 1015.63 1015.74 1015.76 1015.69 1015.80 1015.70 1015.78 1015.18 1015.52 1015.67 1015.74 1015.14 1014.42 1013.86 1013.80 1013.98 1014.61 1014.65 1014.36 1014.17 1013.98 1014.18 1014.68
1012.51 1013.01 1013.66 1014.45 1015.08 1015.48 1015.80 1016.11 1015.87 1015.79 1015.38 1015.60 1015.83 1015.82 1015.70 1015.44 1015.27 1014.90 1014.84 1014.88 1014.78 1014.88 1014.76 1014.93 1014.99 1015.07 1015.04 1014.82 1014.30 1014.27 1014.77 1014.57 1014.81 1014.60 1013.34 1013.21 1013.20 1012.96 1013.34 1013.52 1013.52 1013.36 1013.74
1012.33 1012.88 1013.32 1014.29 1014.88 1015.22 1015.49 1015.68 1016.06 1016.11 1015.96 1015.61 1015.35 1015.31 1014.71 1014.26 1013.90 1013.64 1013.98 1014.14 1014.08 1014.01 1014.05 1014.02 1013.98 1014.11 1014.21 1014.11 1013.99 1013.72 1013.83 1013.89 1013.75 1013.51 1012.99 1012.79 1012.49 1012.13 1012.20 1012.12 1012.38 1012.62 1012.78
Thickness
5767 5769 5769 5768 5767 5768 5768 5768 5767 5768 5767 5768 5768 5768 5769 5767 5767 5767 5768 5767 5767 5767 5768 5768 5768 5767 5770 5769 5766 5766 5764 5766 5765 5765 5764 5763 5761 5758 5757 5757 5759 5758 5752
5769 5768 5767 5767 5769 5768 5766 5766 5764 5763 5763 5764 5765 5766 5767 5766 5766 5766 5767 5766 5766 5768 5767 5768 5769 5768 5765 5766 5764 5764 5764 5764 5765 5765 5765 5764 5761 5758 5756 5757 5758 5754 5752
5769 5770 5767 5769 5770 5769 5768 5766 5764 5761 5760 5762 5763 5763 5764 5764 5764 5764 5763 5765 5766 5765 5765 5765 5766 5767 5764 5764 5762 5762 5763 5763 5763 5764 5768 5773 5765 5759 5757 5756 5754 5753 5751
5774 5775 5774 5769 5770 5768 5766 5766 5763 5762 5761 5761 5761 5761 5762 5763 5764 5763 5762 5762 5763 5763 5763 5763 5763 5764 5763 5763 5762 5761 5762 5763 5764 5766 5774 5773 5768 5760 5759 5757 5755 5752 5750
5779 5779 5773 5769 5768 5766 5765 5765 5763 5762 5760 5760 5759 5760 5761 5761 5761 5762 5762 5761 5761 5760 5760 5760 5760 5761 5761 5761 5761 5761 5760 5762 5765 5769 5772 5771 5770 5761 5759 5758 5756 5753 5751
5788 5781 5769 5768 5767 5765 5763 5762 5763 5759 5759 5759 5757 5758 5759 5759 5759 5759 5761 5759 5759 5759 5758 5757 5757 5758 5759 5759 5760 5760 5759 5762 5765 5769 5768 5767 5770 5761 5760 5759 5757 5754 5752
5786 5779 5771 5766 5765 5763 5762 5761 5759 5757 5755 5756 5756 5756 5756 5756 5756 5757 5757 5757 5757 5758 5757 5756 5755 5755 5755 5756 5758 5758 5759 5761 5768 5770 5767 5769 5764 5760 5760 5759 5757 5755 5753
5785 5778 5769 5763 5763 5762 5760 5758 5756 5754 5754 5754 5754 5754 5753 5752 5753 5753 5754 5754 5755 5754 5755 5755 5754 5753 5753 5753 5754 5756 5757 5760 5767 5768 5767 5768 5760 5759 5759 5758 5758 5757 5755
5780 5778 5771 5767 5763 5760 5760 5757 5756 5754 5754 5753 5753 5752 5751 5751 5751 5752 5752 5752 5753 5753 5753 5752 5752 5752 5752 5752 5752 5754 5755 5758 5767 5769 5769 5770 5760 5758 5757 5757 5757 5756 5755
5779 5772 5772 5769 5767 5763 5758 5757 5755 5753 5752 5752 5751 5750 5750 5751 5751 5751 5751 5750 5750 5751 5750 5750 5750 5750 5750 5751 5751 5752 5754 5758 5770 5769 5768 5767 5761 5759 5758 5756 5756 5755 5755
5782 5776 5774 5771 5766 5763 5761 5758 5755 5753 5751 5750 5749 5749 5750 5758 5756 5754 5750 5748 5748 5749 5748 5748 5748 5749 5749 5750 5751 5751 5754 5767 5769 5768 5771 5764 5760 5759 5758 5756 5755 5756 5755
5781 5780 5778 5774 5770 5767 5767 5760 5760 5757 5756 5754 5753 5751 5753 5754 5753 5753 5750 5748 5748 5748 5749 5748 5747 5747 5748 5755 5757 5752 5757 5763 5764 5766 5768 5763 5759 5758 5759 5757 5756 5756 5756
5786 5785 5779 5776 5771 5771 5769 5765 5765 5763 5760 5757 5754 5751 5753 5752 5751 5751 5753 5752 5752 5747 5753 5750 5748 5749 5754 5754 5755 5756 5760 5760 5766 5766 5766 5763 5760 5758 5757 5757 5756 5756 5756
5787 5785 5783 5779 5774 5773 5770 5768 5767 5767 5765 5762 5759 5754 5753 5752 5751 5748 5750 5751 5748 5751 5750 5746 5750 5746 5747 5750 5752 5754 5756 5760 5764 5762 5765 5764 5761 5758 5758 5757 5756 5756 5756
5787 5787 5784 5780 5775 5773 5769 5769 5768 5766 5764 5764 5761 5758 5755 5756 5753 5750 5748 5747 5748 5745 5746 5746 5746 5746 5745 5748 5750 5753 5755 5759 5761 5759 5763 5765 5762 5760 5759 5758 5757 5756 5756
5790 5788 5786 5781 5776 5773 5769 5767 5766 5765 5766 5763 5763 5760 5755 5755 5754 5753 5749 5745 5744 5747 5749 5745 5746 5748 5748 5749 5753 5753 5755 5757 5759 5761 5762 5767 5763 5760 5760 5759 5758 5757 5756
5793 5790 5786 5781 5778 5773 5770 5767 5765 5767 5763 5765 5764 5761 5758 5755 5754 5751 5752 5750 5745 5747 5747 5745 5748 5746 5747 5749 5753 5753 5756 5758 5759 5761 5762 5765 5767 5762 5761 5761 5759 5758 5758
5797 5790 5787 5783 5779 5775 5771 5769 5768 5769 5767 5767 5765 5764 5760 5756 5754 5753 5755 5756 5753 5746 5747 5746 5747 5753 5754 5752 5751 5754 5759 5760 5761 5762 5762 5763 5767 5770 5765 5763 5761 5761 5760
5798 5792 5787 5783 5781 5778 5774 5771 5769 5769 5767 5768 5768 5766 5764 5759 5757 5755 5756 5757 5753 5752 5751 5753 5752 5753 5748 5753 5752 5750 5755 5759 5762 5765 5766 5766 5765 5766 5768 5769 5767 5763 5762
5800 5795 5791 5788 5784 5779 5776 5772 5772 5772 5769 5768 5768 5767 5765 5762 5759 5758 5759 5757 5755 5755 5756 5756 5750 5752 5751 5748 5754 5754 5758 5762 5765 5766 5767 5767 5769 5769 5770 5770 5770 5768 5766
5802 5798 5794 5789 5786 5781 5777 5774 5773 5772 5773 5771 5769 5767 5764 5763 5761 5759 5761 5762 5758 5759 5757 5757 5753 5749 5752 5758 5748 5751 5756 5763 5765 5766 5769 5771 5773 5773 5772 5772 5772 5774 5775
5805 5802 5798 5793 5788 5784 5782 5779 5779 5777 5778 5777 5774 5771 5767 5764 5762 5764 5765 5765 5763 5758 5756 5756 5755 5751 5751 5761 5748 5746 5748 5761 5769 5773 5773 5773 5775 5775 5776 5775 5775 5774 5774
5808 5805 5801 5796 5790 5786 5783 5781 5777 5774 5774 5773 5775 5774 5770 5768 5766 5765 5763 5761 5760 5757 5757 5758 5758 5755 5752 5759 5756 5749 5745 5751 5761 5771 5770 5771 5774 5776 5778 5779 5778 5777 5775
5813 5811 5804 5798 5793 5789 5784 5779 5775 5774 5772 5777 5774 5775 5772 5769 5768 5766 5766 5763 5763 5761 5759 5758 5758 5758 5754 5753 5754 5755 5753 5754 5748 5749 5766 5769 5767 5767 5773 5777 5780 5780 5777
5814 5810 5806 5799 5792 5790 5786 5781 5779 5775 5778 5775 5770 5767 5766 5767 5766 5767 5766 5765 5764 5762 5763 5761 5759 5757 5756 5755 5758 5757 5752 5754 5750 5743 5747 5758 5768 5774 5774 5776 5778 5780 5779
5812 5808 5804 5794 5789 5787 5784 5781 5774 5771 5769 5769 5768 5765 5770 5773 5773 5771 5766 5763 5762 5762 5761 5761 5761 5758 5756 5755 5756 5757 5753 5749 5749 5749 5749 5753 5757 5769 5775 5780 5780 5778 5778